When you browse on this site, cookies collect data to enhance your experience and personalize the content and advertising you see.
Visit our Privacy Policy to learn more. By continuing to use the site, you agree to this use of cookies and data.
  • In Hungary
  • List of Countries
  • For 7 days
  • Water Temperature
  • Satellite Maps
  • Weather Map
  • News
  • Weather Widgets
  • user-avatar
    Login

    Hourly Weather Baynazarovo

    Today, 20 November, Tuesday

    Time Temperature Precipitation Wind Pressure Humidity
    00:00 -6°C° 0 mm 1 mps 735 mmHg 73%
    01:00 -6°C° 0 mm 1 mps 735 mmHg 71%
    02:00 -6°C° 0 mm 1 mps 735 mmHg 71%
    03:00 -6°C° 0 mm 1 mps 734 mmHg 71%
    04:00 -6°C° 0 mm 1 mps 734 mmHg 75%
    05:00 -6°C° 0 mm 1 mps 734 mmHg 76%
    06:00 -6°C° 0 mm 1 mps 734 mmHg 77%
    07:00 -6°C° 0 mm 1 mps 734 mmHg 77%
    08:00 -4°C° 0 mm 1 mps 734 mmHg 77%
    09:00 -4°C° 0 mm 1 mps 734 mmHg 76%
    10:00 -3°C° 0 mm 1 mps 734 mmHg 75%
    11:00 -2°C° 0 mm 1 mps 734 mmHg 75%
    12:00 -2°C° 0 mm 1 mps 733 mmHg 75%
    13:00 -1°C° 0 mm 1 mps 733 mmHg 76%
    14:00 -2°C° 0 mm 1 mps 733 mmHg 80%
    15:00 -2°C° 0 mm 1 mps 733 mmHg 85%
    16:00 -3°C° 0 mm 1 mps 732 mmHg 90%
    17:00 -3°C° 0 mm 1 mps 732 mmHg 92%
    18:00 -3°C° 0 mm 1 mps 732 mmHg 93%
    19:00 -4°C° 0 mm 1 mps 732 mmHg 95%
    20:00 -4°C° 0 mm 1 mps 732 mmHg 95%
    21:00 -4°C° 0 mm 1 mps 731 mmHg 95%
    22:00 -6°C° 0 mm 2 mps 731 mmHg 96%
    23:00 -5°C° 0 mm 2 mps 731 mmHg 95%

    Tomorrow, 21 November, Wednesday

    Time Temperature Precipitation Wind Pressure Humidity
    00:00 -5°C° 0 mm 2 mps 730 mmHg 95%
    01:00 -5°C° 0 mm 2 mps 730 mmHg 95%
    02:00 -5°C° 0 mm 2 mps 730 mmHg 95%
    03:00 -5°C° 0 mm 2 mps 729 mmHg 95%
    04:00 -5°C° 0 mm 2 mps 729 mmHg 95%
    05:00 -5°C° 0 mm 2 mps 728 mmHg 94%
    06:00 -6°C° 0 mm 3 mps 728 mmHg 93%
    07:00 -6°C° 0 mm 3 mps 727 mmHg 93%
    08:00 -6°C° 0.1 mm 3 mps 727 mmHg 90%
    09:00 -5°C° 0.1 mm 3 mps 726 mmHg 88%
    10:00 -5°C° 0.1 mm 4 mps 725 mmHg 86%
    11:00 -5°C° 0.1 mm 4 mps 725 mmHg 84%
    12:00 -6°C° 0.1 mm 5 mps 724 mmHg 82%
    13:00 -5°C° 0.1 mm 5 mps 723 mmHg 81%
    14:00 -6°C° 0.2 mm 5 mps 723 mmHg 83%
    15:00 -6°C° 0.2 mm 5 mps 722 mmHg 85%
    16:00 -6°C° 0.2 mm 5 mps 721 mmHg 87%
    17:00 -6°C° 0.3 mm 5 mps 721 mmHg 87%
    18:00 -6°C° 0.3 mm 5 mps 720 mmHg 87%
    19:00 -7°C° 0.3 mm 5 mps 720 mmHg 88%
    20:00 -7°C° 0.2 mm 5 mps 719 mmHg 88%
    21:00 -7°C° 0.2 mm 4 mps 719 mmHg 88%
    22:00 -7°C° 0.2 mm 4 mps 719 mmHg 87%
    23:00 -7°C° 0.2 mm 4 mps 718 mmHg 87%

    Day after tomorrow, 22 November, Thursday

    Time Temperature Precipitation Wind Pressure Humidity
    00:00 -7°C° 0.2 mm 4 mps 718 mmHg 88%
    01:00 -7°C° 0.2 mm 4 mps 718 mmHg 88%
    02:00 -8°C° 0.1 mm 4 mps 718 mmHg 86%
    03:00 -9°C° 0.1 mm 4 mps 718 mmHg 85%
    04:00 -9°C° 0.1 mm 4 mps 718 mmHg 84%
    05:00 -10°C° 0.1 mm 4 mps 719 mmHg 83%
    06:00 -10°C° 0.1 mm 4 mps 719 mmHg 83%
    07:00 -10°C° 0.1 mm 4 mps 719 mmHg 83%
    08:00 -10°C° 0.1 mm 4 mps 719 mmHg 81%
    09:00 -11°C° 0.1 mm 5 mps 720 mmHg 80%
    10:00 -12°C° 0.1 mm 5 mps 720 mmHg 79%
    11:00 -11°C° 0.1 mm 5 mps 720 mmHg 77%
    12:00 -11°C° 0.1 mm 5 mps 720 mmHg 75%
    13:00 -11°C° 0.1 mm 5 mps 720 mmHg 73%
    14:00 -10°C° 0.1 mm 4 mps 720 mmHg 75%
    15:00 -11°C° 0.1 mm 4 mps 720 mmHg 77%
    16:00 -11°C° 0.1 mm 4 mps 720 mmHg 79%
    17:00 -12°C° 0 mm 3 mps 721 mmHg 83%
    18:00 -13°C° 0 mm 3 mps 721 mmHg 87%
    19:00 -12°C° 0 mm 2 mps 721 mmHg 90%
    20:00 -13°C° 0 mm 3 mps 721 mmHg 91%
    21:00 -13°C° 0 mm 3 mps 721 mmHg 92%
    22:00 -13°C° 0 mm 3 mps 721 mmHg 93%
    23:00 -12°C° 0.2 mm 4 mps 720 mmHg 90%

    23 November, Friday

    Time Temperature Precipitation Wind Pressure Humidity
    00:00 -12°C° 0.2 mm 5 mps 720 mmHg 88%
    01:00 -12°C° 0.2 mm 5 mps 719 mmHg 86%
    02:00 -11°C° 0.2 mm 6 mps 719 mmHg 86%
    03:00 -11°C° 0.2 mm 6 mps 719 mmHg 85%
    04:00 -11°C° 0.2 mm 6 mps 718 mmHg 85%
    05:00 -11°C° 0.1 mm 6 mps 718 mmHg 85%
    06:00 -11°C° 0.1 mm 6 mps 718 mmHg 85%
    07:00 -11°C° 0.1 mm 5 mps 717 mmHg 85%
    08:00 -11°C° 0.2 mm 5 mps 717 mmHg 85%
    09:00 -10°C° 0.2 mm 5 mps 717 mmHg 84%
    10:00 -10°C° 0.2 mm 6 mps 717 mmHg 84%
    11:00 -10°C° 0.2 mm 5 mps 716 mmHg 83%
    12:00 -10°C° 0.2 mm 5 mps 716 mmHg 83%
    13:00 -10°C° 0.2 mm 5 mps 716 mmHg 82%
    14:00 -9°C° 0.2 mm 4 mps 716 mmHg 84%
    15:00 -8°C° 0.2 mm 3 mps 715 mmHg 87%
    16:00 -7°C° 0.2 mm 2 mps 715 mmHg 89%
    17:00 -7°C° 0.2 mm 2 mps 715 mmHg 91%
    18:00 -7°C° 0.2 mm 1 mps 715 mmHg 93%
    19:00 -7°C° 0.2 mm 0 mps 715 mmHg 96%
    20:00 -7°C° 0.2 mm 1 mps 716 mmHg 95%
    21:00 -7°C° 0.2 mm 1 mps 716 mmHg 95%
    22:00 -8°C° 0.2 mm 2 mps 717 mmHg 95%
    23:00 -10°C° 0.1 mm 3 mps 717 mmHg 93%

    24 November, Saturday

    Time Temperature Precipitation Wind Pressure Humidity
    00:00 -11°C° 0.1 mm 4 mps 718 mmHg 90%
    01:00 -12°C° 0.1 mm 5 mps 719 mmHg 88%
    02:00 -13°C° 0 mm 5 mps 720 mmHg 86%
    03:00 -14°C° 0 mm 5 mps 721 mmHg 85%
    04:00 -15°C° 0 mm 5 mps 722 mmHg 83%
    05:00 -17°C° 0 mm 5 mps 723 mmHg 84%
    06:00 -17°C° 0 mm 4 mps 725 mmHg 85%
    07:00 -17°C° 0 mm 3 mps 726 mmHg 86%
    08:00 -17°C° 0 mm 3 mps 727 mmHg 85%
    09:00 -17°C° 0 mm 3 mps 728 mmHg 85%
    10:00 -17°C° 0 mm 4 mps 728 mmHg 85%
    11:00 -16°C° 0 mm 4 mps 729 mmHg 84%
    12:00 -15°C° 0 mm 4 mps 729 mmHg 84%
    13:00 -14°C° 0 mm 5 mps 730 mmHg 83%
    14:00 -14°C° 0.1 mm 5 mps 730 mmHg 84%
    15:00 -14°C° 0.1 mm 5 mps 730 mmHg 86%
    16:00 -13°C° 0.1 mm 5 mps 730 mmHg 87%
    17:00 -14°C° 0.1 mm 6 mps 731 mmHg 87%
    18:00 -14°C° 0.1 mm 6 mps 731 mmHg 86%
    19:00 -13°C° 0.1 mm 7 mps 731 mmHg 86%
    20:00 -13°C° 0 mm 7 mps 731 mmHg 86%
    21:00 -14°C° 0 mm 7 mps 731 mmHg 86%
    22:00 -14°C° 0 mm 7 mps 731 mmHg 86%
    23:00 -14°C° 0 mm 7 mps 731 mmHg 85%

    25 November, Sunday

    Time Temperature Precipitation Wind Pressure Humidity
    00:00 -13°C° 0 mm 7 mps 731 mmHg 85%
    01:00 -13°C° 0 mm 7 mps 730 mmHg 84%
    02:00 -13°C° 0 mm 8 mps 730 mmHg 84%
    03:00 -13°C° 0 mm 8 mps 730 mmHg 83%
    04:00 -13°C° 0 mm 8 mps 730 mmHg 82%
    05:00 -13°C° 0 mm 8 mps 729 mmHg 82%
    06:00 -12°C° 0 mm 8 mps 729 mmHg 82%
    07:00 -12°C° 0 mm 8 mps 729 mmHg 82%
    08:00 -12°C° 0 mm 8 mps 729 mmHg 82%
    09:00 -12°C° 0 mm 8 mps 729 mmHg 82%
    10:00 -12°C° 0 mm 8 mps 729 mmHg 82%
    11:00 -12°C° 0.1 mm 8 mps 729 mmHg 82%
    12:00 -11°C° 0.1 mm 8 mps 729 mmHg 82%
    13:00 -11°C° 0.1 mm 7 mps 729 mmHg 82%
    14:00 -11°C° 0.1 mm 7 mps 729 mmHg 84%
    15:00 -11°C° 0.1 mm 6 mps 730 mmHg 85%
    16:00 -11°C° 0.1 mm 6 mps 730 mmHg 87%
    17:00 -11°C° 0.1 mm 6 mps 730 mmHg 87%
    18:00 -11°C° 0.1 mm 5 mps 730 mmHg 88%
    19:00 -11°C° 0.1 mm 5 mps 731 mmHg 89%
    20:00 -10°C° 0 mm 4 mps 731 mmHg 90%
    21:00 -9°C° 0 mm 3 mps 731 mmHg 91%
    22:00 -9°C° 0 mm 3 mps 731 mmHg 92%
    23:00 -8°C° 0.1 mm 2 mps 731 mmHg 93%
    Show more